Main page
METAR-TAF:

METAR-TAF

Airports :

Vlissingen, Netherlands

latitude: 51-27N, longitude: 3-36E, elevation: 10 m

Current weather observation

The report was made 30 minutes ago, at 01:55 UTC
Wind 15 kt from the West, varying between West/Southwest and North/Northwest
Temperature 15°C
Humidity 63%
Pressure 1018 hPa
Visibility 10 km or more

METAR: EHFS 220155Z AUTO 28015KT 250V330 9999 SCT035/// SCT039/// BKN044/// 15/08 Q1018 W///H///

Time: 04:25 (02:25 UTC)


TAF: missing

Weather observations and forecasts of more than 4000 airports (METAR and TAF reports).

The available stations are represented by yellow and red dots on the map.

Hover mouse over dot to see the name of the station.

Then click to see weather observations and forecasts.

To change the map : click on the green buttons with a black cross to zoom in, on the green button with a dash to zoom out, or on the green arrows for adjacent maps.


METAR-TAF: